< < Back
Terminal Aerodrome Forecast


Current Version              Previous Versions:   1  2  3  4  5  6  7  8  9  

Terminal Aerodrome Forecast

531
FTUS42 KFFC 251700
TAFFTY
TAF
KFTY 251733Z 2518/2618 33007KT P6SM SKC
     FM260200 31004KT P6SM FEW025
     FM260900 31003KT 4SM BR FEW025
     FM261300 33005KT P6SM FEW250=



Latest METAR

698
SAUS70 KWBC 260900 RRD
MTRFTY
METAR KFTY 260853Z 00000KT 9SM CLR 11/09 A2999 RMK AO2 SLP151 T01060089
56006


USA.gov is the U.S. government's official web portal to all federal, state and local government web resources and services.